EW7614 Weather Reports


time (UTC)temp
C
wind
direction
speed
KPH
gust
KPH
rain 1hr
cm
rain 24hr
cm
rain mn
cm
humidity
%
barometer
mb
20260903073115 17 263 0.0 0.0 0.00 0.00 0.00 77 1019.6
20260903071505 16 260 0.0 0.0 0.00 0.00 0.00 83 1019.9
20260903070039 14 235 0.0 0.0 0.00 0.00 0.00 90 1019.9
20260903063104 12 267 0.0 0.0 0.00 0.00 0.00 93 1019.9
20260903060056 12 211 0.0 0.0 0.00 0.00 0.00 95 1020.0
20260903054626 11 211 0.0 0.0 0.00 0.00 0.00 95 1020.0
20260903053046 11 214 0.0 0.0 0.00 0.00 0.00 95 1019.7
20260903051634 11 214 0.0 0.0 0.00 0.00 0.00 95 1019.8
20260903050038 11 214 0.0 0.0 0.00 0.00 0.00 94 1019.7
20260903044628 11 214 0.0 0.0 0.00 0.00 0.00 94 1019.5
20260903043112 11 214 0.0 0.0 0.00 0.00 0.00 94 1019.3
20260903041552 12 214 0.0 0.0 0.00 0.00 0.00 94 1019.3
20260903040012 12 214 0.0 0.0 0.00 0.00 0.00 93 1019.3
20260903034552 12 213 0.0 0.0 0.00 0.00 0.00 93 1019.3
20260903033129 12 252 0.0 0.0 0.00 0.00 0.00 94 1019.3
20260903031555 12 254 0.0 0.0 0.00 0.00 0.00 94 1019.2
20260903030130 11 253 0.0 0.0 0.00 0.00 0.00 93 1019.4
20260903024540 12 248 0.0 0.0 0.00 0.00 0.00 93 1019.3
20260903023138 12 248 0.0 0.0 0.00 0.00 0.00 93 1019.3
20260903021533 12 248 0.0 0.0 0.00 0.00 0.00 92 1019.3
20260903020013 12 248 0.0 0.0 0.00 0.00 0.00 92 1019.2
20260903014616 12 248 0.0 0.0 0.00 0.00 0.00 91 1019.3
20260903013042 13 248 0.0 0.0 0.00 0.00 0.00 91 1019.1
20260903011616 13 248 0.0 0.0 0.00 0.00 0.00 90 1019.2
20260903010032 13 248 0.0 0.0 0.00 0.00 0.00 89 1019.2
20260903004613 13 248 0.0 0.0 0.00 0.00 0.00 89 1019.2
20260903003107 14 248 0.0 0.0 0.00 0.00 0.00 89 1019.2
20260903001524 14 248 0.0 0.0 0.00 0.00 0.00 89 1019.1
20260903000113 14 248 0.0 0.0 0.00 0.00 0.00 89 1019.1
20260902234532 14 248 0.0 0.0 0.00 0.00 0.00 88 1019.1
20260902233127 14 248 0.0 0.0 0.00 0.00 0.00 88 1019.1
20260902231544 15 248 0.0 0.0 0.00 0.00 0.00 88 1019.2
20260902230120 14 248 0.0 0.0 0.00 0.00 0.00 87 1019.2
20260902224529 15 248 0.0 0.0 0.00 0.00 0.00 86 1019.1
20260902223120 15 248 0.0 0.0 0.00 0.00 0.00 85 1019.1
20260902221516 15 248 0.0 0.0 0.00 0.00 0.00 85 1019.0
20260902220113 15 248 0.0 0.0 0.00 0.00 0.00 84 1018.9
20260902214526 15 248 0.0 0.0 0.00 0.00 0.00 85 1018.9
20260902213121 16 257 0.0 1.6 0.00 0.00 0.00 84 1018.8
20260902211528 16 254 0.0 0.0 0.00 0.00 0.00 82 1018.7
20260902210113 16 259 0.0 1.6 0.00 0.00 0.00 81 1018.5
20260902204537 17 290 0.0 3.2 0.00 0.00 0.00 77 1018.5
20260902203118 18 248 6.4 14.5 0.00 0.00 0.00 67 1018.3
20260902201534 18 221 6.4 11.3 0.00 0.00 0.00 70 1018.4
20260902200124 18 242 0.0 14.5 0.00 0.00 0.00 72 1018.5
20260902194527 18 94 0.0 3.2 0.00 0.00 0.00 72 1018.4
20260902193118 19 220 4.8 17.7 0.00 0.00 0.00 67 1018.2
20260902191511 19 186 0.0 9.7 0.00 0.00 0.00 67 1018.2
20260902190114 18 173 0.0 1.6 0.00 0.00 0.00 69 1018.0
20260902184532 19 243 0.0 6.4 0.00 0.00 0.00 69 1017.8
20260902183123 19 196 0.0 8.0 0.00 0.00 0.00 68 1017.5
20260902181542 20 199 0.0 12.9 0.00 0.00 0.00 64 1017.3
20260902180128 20 40 0.0 1.6 0.00 0.00 0.00 63 1017.2
20260902174556 20 234 0.0 3.2 0.00 0.00 0.00 63 1016.9
20260902173002 21 304 1.6 6.4 0.00 0.00 0.00 60 1016.7
20260902171608 21 257 1.6 9.7 0.00 0.00 0.00 59 1016.4
20260902170042 22 206 0.0 1.6 0.00 0.00 0.00 61 1016.1
20260902164615 21 291 0.0 4.8 0.00 0.00 0.00 60 1016.0
20260902163027 22 225 0.0 3.2 0.00 0.00 0.00 61 1015.9
20260902161620 22 261 1.6 6.4 0.00 0.00 0.00 59 1015.8
20260902160106 23 206 0.0 4.8 0.00 0.00 0.00 61 1015.6
20260902154531 23 233 0.0 4.8 0.00 0.00 0.00 59 1015.5
20260902153124 24 173 0.0 3.2 0.00 0.00 0.00 57 1015.6
20260902151558 23 217 0.0 1.6 0.00 0.00 0.00 59 1015.7
20260902150137 24 252 0.0 3.2 0.00 0.00 0.00 53 1015.7
20260902144530 25 282 0.0 6.4 0.00 0.00 0.00 52 1015.8
20260902143125 24 306 4.8 11.3 0.00 0.00 0.00 53 1016.0
20260902141609 24 300 6.4 12.9 0.00 0.00 0.00 52 1015.8
20260902140158 24 325 4.8 20.9 0.00 0.00 0.00 52 1016.0
20260902134555 23 296 6.4 17.7 0.00 0.00 0.00 52 1015.9
20260902133133 23 290 1.6 9.7 0.00 0.00 0.00 54 1015.9
20260902131533 23 340 9.7 19.3 0.00 0.00 0.00 51 1016.0
20260902130114 24 285 4.8 14.5 0.00 0.00 0.00 52 1015.9
20260902124526 23 319 3.2 17.7 0.00 0.00 0.00 55 1016.1
20260902123120 24 331 3.2 16.1 0.00 0.00 0.00 61 1016.1
20260902121525 23 296 6.4 16.1 0.00 0.00 0.00 56 1016.4
20260902120117 24 216 0.0 3.2 0.00 0.00 0.00 58 1016.3
20260902114609 25 202 0.0 1.6 0.00 0.00 0.00 58 1016.5
20260902113118 24 207 0.0 4.8 0.00 0.00 0.00 52 1016.8
20260902111609 24 29 0.0 3.2 0.00 0.00 0.00 55 1016.9
20260902110029 23 47 0.0 6.4 0.00 0.00 0.00 58 1017.1
20260902104614 23 30 0.0 6.4 0.00 0.00 0.00 59 1017.3
20260902103023 23 42 0.0 8.0 0.00 0.00 0.00 61 1017.6
20260902100025 22 24 1.6 9.7 0.00 0.00 0.00 60 1018.1
20260902094619 22 24 0.0 3.2 0.00 0.00 0.00 65 1018.2
20260902093159 21 277 0.0 1.6 0.00 0.00 0.00 67 1018.3
20260902090059 19 254 0.0 1.6 0.00 0.00 0.00 74 1018.7
20260902084630 18 254 0.0 1.6 0.00 0.00 0.00 75 1018.8
20260902083048 17 261 0.0 1.6 0.00 0.00 0.00 75 1018.8
20260902081503 17 248 0.0 1.6 0.00 0.00 0.00 79 1019.0
20260902080046 16 250 0.0 1.6 0.00 0.00 0.00 83 1019.1
20260902074619 16 252 0.0 1.6 0.00 0.00 0.00 83 1019.2